GW1539 Weather Reports


Display with metric or nautical units.
time (UTC)temp
F
wind
direction
speed
MPH
gust
MPH
rain 1hr
in
rain 24hr
in
rain mn
in
humidity
%
barometer
mb
20260507074621 49 211 0.0 0.0 0.00 0.36 0.00 95 1012.9
20260507073125 48 286 0.0 0.0 0.00 0.36 0.00 96 1012.9
20260507070123 46 234 0.0 0.0 0.00 0.36 0.00 97 1012.6
20260507063119 45 234 0.0 0.0 0.00 0.50 0.00 97 1012.5
20260507061612 44 234 0.0 0.0 0.00 0.50 0.00 97 1012.5
20260507054618 43 234 0.0 0.0 0.00 0.58 0.00 97 1012.4
20260507053111 41 234 0.0 0.0 0.00 0.58 0.00 97 1012.2
20260507050119 39 234 0.0 0.0 0.00 0.58 0.00 96 1011.7
20260507043127 38 234 0.0 0.0 0.00 0.58 0.00 96 1011.6
20260507041617 38 234 0.0 0.0 0.00 0.58 0.00 96 1011.6
20260507040114 39 234 0.0 0.0 0.00 0.58 0.00 96 1011.4
20260507034622 39 234 0.0 0.0 0.00 0.58 0.00 96 1011.2
20260507033110 39 234 0.0 0.0 0.00 0.58 0.00 96 1011.4
20260507030108 40 234 0.0 0.0 0.00 0.58 0.00 96 1011.3
20260507023117 40 234 0.0 0.0 0.00 0.58 0.00 96 1011.1
20260507020120 40 234 0.0 0.0 0.00 0.58 0.00 96 1011.2
20260507014614 41 234 0.0 0.0 0.00 0.58 0.00 96 1011.1
20260507013112 42 234 0.0 0.0 0.00 0.58 0.00 96 1011.2
20260507011612 42 234 0.0 0.0 0.00 0.58 0.00 96 1011.2
20260507004620 44 234 0.0 0.0 0.00 0.58 0.00 96 1011.0
20260507001618 45 234 0.0 0.0 0.00 0.58 0.00 96 1011.2
20260507000110 46 234 0.0 0.0 0.00 0.58 0.00 96 1011.3
20260506233119 46 234 0.0 0.0 0.00 0.58 0.00 96 1011.2
20260506231611 46 234 0.0 0.0 0.00 0.58 0.00 96 1011.3
20260506224620 47 234 0.0 0.0 0.00 0.58 0.00 96 1011.4
20260506223110 47 234 0.0 0.0 0.00 0.58 0.00 96 1011.5
20260506220143 47 234 0.0 0.0 0.00 0.58 0.00 95 1011.3
20260506214612 48 234 0.0 0.0 0.00 0.58 0.58 95 1011.3
20260506211612 49 234 0.0 2.0 0.00 0.58 0.58 95 1011.5
20260506204616 49 234 0.0 1.0 0.00 0.58 0.58 95 1011.3
20260506201622 50 234 1.0 2.0 0.00 0.58 0.58 95 1011.1
20260506194621 49 234 0.0 0.0 0.02 0.58 0.58 95 1010.9
20260506191623 50 234 0.0 2.0 0.02 0.58 0.58 95 1010.5
20260506190110 50 236 5.0 8.0 0.01 0.57 0.57 95 1010.5
20260506183115 50 248 0.0 0.0 0.00 0.57 0.56 94 1010.1
20260506180117 51 248 0.0 0.0 0.00 0.57 0.56 93 1010.0
20260506174615 51 248 0.0 1.0 0.00 0.57 0.56 93 1009.9
20260506171619 52 248 0.0 3.0 0.00 0.57 0.56 92 1009.7
20260506164621 52 248 0.0 2.0 0.00 0.58 0.56 92 1009.6
20260506163117 52 248 0.0 5.0 0.00 0.58 0.56 91 1009.3
20260506160122 52 271 0.0 3.0 0.00 0.58 0.56 92 1009.6
20260506153121 52 271 0.0 3.0 0.00 0.58 0.56 91 1009.7
20260506151619 53 292 0.0 3.0 0.01 0.58 0.56 94 1009.4
20260506144619 52 290 0.0 3.0 0.13 0.58 0.56 93 1009.6
20260506143117 51 232 0.0 2.0 0.13 0.58 0.56 94 1009.7
20260506141614 50 229 0.0 2.0 0.12 0.58 0.55 96 1009.7
20260506140113 49 240 2.0 5.0 0.10 0.54 0.50 95 1010.0
20260506133141 51 233 1.0 4.0 0.04 0.48 0.43 95 1009.8
20260506131617 50 231 0.0 2.0 0.06 0.48 0.43 95 1010.2
20260506124615 50 231 1.0 4.0 0.04 0.48 0.40 95 1010.3
20260506123111 50 279 0.0 5.0 0.05 0.47 0.39 95 1010.1
20260506120123 50 259 1.0 6.0 0.06 0.44 0.36 95 1009.8
20260506114621 51 229 0.0 0.0 0.09 0.44 0.36 94 1010.1
20260506113119 50 258 0.0 0.0 0.09 0.43 0.35 94 1010.2
20260506110117 50 242 0.0 0.0 0.05 0.39 0.31 94 1010.7
20260506104614 51 225 0.0 0.0 0.00 0.47 0.26 94 1010.7
20260506103110 50 211 0.0 0.0 0.01 0.47 0.26 94 1010.9
20260506100117 49 229 0.0 0.0 0.01 0.47 0.26 93 1011.0
20260506093119 49 229 0.0 0.0 0.00 0.57 0.25 92 1011.0
20260506090120 49 209 0.0 0.0 0.00 0.57 0.25 94 1011.0
20260506083116 48 207 0.0 0.0 0.02 0.58 0.25 95 1010.9
20260506080119 49 228 0.0 0.0 0.03 0.58 0.25 96 1010.7